Notices

What's New in latest Release from April 7th, 2021:

- Updated Glossary, including Speed of Maximum Gust, and Total Hourly Precipitation

- Updated national and regional climate services offices contacts and prices information

- Addition of station inventory lists for 1981-2010, 1971-2000, and 1961-1990 Normals.

If you haven't already, please take our survey and provide feedback about our website: https://eccc.sondage-survey.ca/f/LanguageSelection.aspx?s=442ca660-fcf1-47c0-95a9-59707d6fd709

Hourly Data Report for January 30, 2021

SHEARWATER RCS
NOVA SCOTIA
Current Station Operator: ECCC - MSC

44°37'47.000" N
63°30'48.000" W
24.00 m
8205092
71264
AAW

Download Data

Hourly Data (January 2021)
Hourly Data Report for January 30, 2021
TIME
LST
Temp Definition
°C
Dew Point Definition
°C
Rel Hum Definition
%
Precip. Amount Definition
mm

Wind Dir Definition
10's deg

Wind Spd Definition
km/h
Visibility Definition
km
Stn Press Definition
kPa
Hmdx Definition


Wind Chill Definition


Weather Definition


00:00 -2.8 -5.8 79 0.0 35 25   100.34   -10 LegendNANA
01:00 -3.4 -6.9 77 0.0 35 28   100.38   -11 LegendNANA
02:00 -4.0 -7.4 77 0.0 35 27   100.41   -11 LegendNANA
03:00 -3.9 -8.0 74 0.0 35 29   100.52   -11 LegendNANA
04:00 -4.0 -7.1 79 0.0 34 23   100.61   -11 LegendNANA
05:00 -5.4 -7.0 89 0.0 33 18   100.71   -12 LegendNANA
06:00 -5.4 -7.7 84 0.0 33 21   100.79   -12 LegendNANA
07:00 -5.7 -8.2 82 0.0 34 24   100.85   -13 LegendNANA
08:00 -7.1 -9.6 82 0.0 33 23   100.94   -15 LegendNANA
09:00 -7.4 -10.4 79 0.0 33 23   100.99   -15 LegendNANA
10:00 -6.1 -9.7 75 0.0 33 20   101.05   -13 LegendNANA
11:00 -5.9 -10.1 72 0.0 33 21   101.11   -13 LegendNANA
12:00 -5.3 -9.8 71 0.0 34 21   101.11   -12 LegendNANA
13:00 -5.1 -9.4 72 0.0 32 21   101.10   -12 LegendNANA
14:00 -3.7 -9.9 62 0.0 34 20   101.08   -10 LegendNANA
15:00 -2.9 -10.6 55 0.0 33 17   101.08   -8 LegendNANA
16:00 -3.5 -11.6 54 0.0 31 18   101.15   -9 LegendNANA
17:00 -4.8 -11.5 59 0.0 32 16   101.22   -11 LegendNANA
18:00 -6.0 -11.3 66 0.0 33 11   101.28   -11 LegendNANA
19:00 -6.6 -11.4 69 0.0 33 8   101.34   -10 LegendNANA
20:00 -7.3 -11.4 72 0.0 31 7   101.40   -11 LegendNANA
21:00 -7.8 -12.1 71 0.0 32 10   101.43   -13 LegendNANA
22:00 -8.4 -12.6 72 0.0 33 8   101.44   -13 LegendNANA
23:00 -9.1 -13.0 73 0.0 33 5   101.47   -12 LegendNANA

Notes on Data Quality.

Legend

  • E = Estimated
  • M = Missing
  • NA = Not Available*
  • [empty] = Indicates an unobserved value
Date modified: